• In Hungary
  • List of Countries
  • For 7 days
  • Water Temperature
  • Satellite Maps
  • Weather Map
  • News
  • Weather Widgets
  • user-avatar
    Login

    Hourly Weather Turnhout

    Today, 23 October, Monday

    Time Temperature Precipitation Wind Pressure Humidity
    00:00 +10°C° 0 mm 4 mps 760 mmHg 81%
    01:00 +8°C° 0 mm 4 mps 760 mmHg 82%
    02:00 +8°C° 0 mm 4 mps 760 mmHg 83%
    03:00 +8°C° 0 mm 4 mps 760 mmHg 83%
    04:00 +8°C° 0 mm 4 mps 760 mmHg 83%
    05:00 +10°C° 0 mm 4 mps 761 mmHg 83%
    06:00 +10°C° 0 mm 4 mps 761 mmHg 83%
    07:00 +10°C° 0 mm 5 mps 761 mmHg 81%
    08:00 +10°C° 0 mm 5 mps 761 mmHg 79%
    09:00 +12°C° 0 mm 5 mps 761 mmHg 77%
    10:00 +13°C° 0 mm 5 mps 762 mmHg 74%
    11:00 +14°C° 0 mm 5 mps 762 mmHg 71%
    12:00 +15°C° 0 mm 5 mps 762 mmHg 69%
    13:00 +15°C° 0 mm 5 mps 762 mmHg 71%
    14:00 +14°C° 0 mm 4 mps 762 mmHg 73%
    15:00 +14°C° 0 mm 4 mps 762 mmHg 75%
    16:00 +14°C° 0 mm 4 mps 762 mmHg 80%
    17:00 +13°C° 0 mm 4 mps 763 mmHg 85%
    18:00 +12°C° 0 mm 3 mps 763 mmHg 89%
    19:00 +12°C° 0.1 mm 4 mps 763 mmHg 90%
    20:00 +12°C° 0.1 mm 4 mps 763 mmHg 90%
    21:00 +12°C° 0.1 mm 4 mps 763 mmHg 91%
    22:00 +12°C° 0.1 mm 4 mps 763 mmHg 91%
    23:00 +12°C° 0.1 mm 4 mps 763 mmHg 92%

    Tomorrow, 24 October, Tuesday

    Time Temperature Precipitation Wind Pressure Humidity
    00:00 +12°C° 0.1 mm 4 mps 763 mmHg 92%
    01:00 +12°C° 0 mm 4 mps 763 mmHg 93%
    02:00 +13°C° 0 mm 4 mps 763 mmHg 93%
    03:00 +13°C° 0 mm 4 mps 763 mmHg 94%
    04:00 +13°C° 0 mm 4 mps 763 mmHg 94%
    05:00 +13°C° 0 mm 4 mps 763 mmHg 95%
    06:00 +13°C° 0 mm 4 mps 763 mmHg 95%
    07:00 +14°C° 0.3 mm 4 mps 763 mmHg 94%
    08:00 +14°C° 0.3 mm 5 mps 763 mmHg 93%
    09:00 +15°C° 0.3 mm 5 mps 763 mmHg 91%
    10:00 +15°C° 0.2 mm 5 mps 763 mmHg 91%
    11:00 +15°C° 0.2 mm 5 mps 763 mmHg 91%
    12:00 +16°C° 0.2 mm 5 mps 763 mmHg 90%
    13:00 +16°C° 0 mm 5 mps 763 mmHg 90%
    14:00 +16°C° 0 mm 5 mps 763 mmHg 90%
    15:00 +16°C° 0 mm 5 mps 763 mmHg 89%
    16:00 +16°C° 0 mm 5 mps 763 mmHg 90%
    17:00 +16°C° 0 mm 5 mps 764 mmHg 91%
    18:00 +15°C° 0 mm 4 mps 764 mmHg 92%
    19:00 +15°C° 0 mm 4 mps 764 mmHg 92%
    20:00 +15°C° 0 mm 4 mps 764 mmHg 93%
    21:00 +15°C° 0 mm 4 mps 764 mmHg 94%
    22:00 +15°C° 0 mm 4 mps 764 mmHg 94%
    23:00 +15°C° 0 mm 4 mps 763 mmHg 93%

    Day after tomorrow, 25 October, Wednesday

    Time Temperature Precipitation Wind Pressure Humidity
    00:00 +15°C° 0 mm 4 mps 763 mmHg 93%
    01:00 +15°C° 0 mm 5 mps 763 mmHg 93%
    02:00 +15°C° 0 mm 5 mps 763 mmHg 92%
    03:00 +14°C° 0 mm 5 mps 763 mmHg 92%
    04:00 +14°C° 0 mm 5 mps 763 mmHg 92%
    05:00 +14°C° 0 mm 5 mps 763 mmHg 92%
    06:00 +13°C° 0 mm 5 mps 763 mmHg 92%
    07:00 +14°C° 0 mm 5 mps 763 mmHg 89%
    08:00 +14°C° 0 mm 5 mps 764 mmHg 86%
    09:00 +15°C° 0 mm 5 mps 764 mmHg 82%
    10:00 +15°C° 0 mm 5 mps 764 mmHg 80%
    11:00 +17°C° 0 mm 4 mps 764 mmHg 78%
    12:00 +18°C° 0 mm 4 mps 765 mmHg 76%
    13:00 +18°C° 0 mm 4 mps 765 mmHg 77%
    14:00 +18°C° 0 mm 3 mps 765 mmHg 78%
    15:00 +18°C° 0 mm 3 mps 765 mmHg 78%
    16:00 +17°C° 0 mm 2 mps 765 mmHg 81%
    17:00 +16°C° 0 mm 2 mps 765 mmHg 84%
    18:00 +15°C° 0 mm 2 mps 765 mmHg 87%
    19:00 +15°C° 0 mm 2 mps 766 mmHg 88%
    20:00 +15°C° 0 mm 2 mps 766 mmHg 89%
    21:00 +14°C° 0 mm 2 mps 766 mmHg 89%
    22:00 +14°C° 0 mm 2 mps 766 mmHg 90%
    23:00 +14°C° 0 mm 2 mps 766 mmHg 90%

    26 October, Thursday

    Time Temperature Precipitation Wind Pressure Humidity
    00:00 +13°C° 0 mm 2 mps 765 mmHg 91%
    01:00 +13°C° 0 mm 2 mps 765 mmHg 91%
    02:00 +13°C° 0 mm 2 mps 765 mmHg 92%
    03:00 +12°C° 0 mm 2 mps 765 mmHg 92%
    04:00 +12°C° 0 mm 2 mps 765 mmHg 92%
    05:00 +12°C° 0 mm 2 mps 765 mmHg 92%
    06:00 +12°C° 0 mm 2 mps 765 mmHg 92%
    07:00 +12°C° 0 mm 3 mps 765 mmHg 89%
    08:00 +13°C° 0 mm 3 mps 765 mmHg 85%
    09:00 +14°C° 0 mm 3 mps 766 mmHg 81%
    10:00 +16°C° 0 mm 3 mps 765 mmHg 77%
    11:00 +17°C° 0 mm 4 mps 765 mmHg 73%
    12:00 +18°C° 0 mm 4 mps 765 mmHg 69%
    13:00 +18°C° 0 mm 3 mps 765 mmHg 71%
    14:00 +18°C° 0 mm 3 mps 765 mmHg 73%
    15:00 +18°C° 0 mm 3 mps 765 mmHg 74%
    16:00 +17°C° 0 mm 3 mps 765 mmHg 79%
    17:00 +16°C° 0 mm 3 mps 765 mmHg 84%
    18:00 +15°C° 0 mm 2 mps 766 mmHg 89%
    19:00 +15°C° 0 mm 2 mps 766 mmHg 90%
    20:00 +14°C° 0 mm 2 mps 766 mmHg 92%
    21:00 +13°C° 0 mm 3 mps 766 mmHg 93%
    22:00 +13°C° 0 mm 3 mps 766 mmHg 93%
    23:00 +13°C° 0 mm 3 mps 765 mmHg 93%

    27 October, Friday

    Time Temperature Precipitation Wind Pressure Humidity
    00:00 +13°C° 0 mm 3 mps 765 mmHg 93%
    01:00 +13°C° 0.4 mm 3 mps 765 mmHg 92%
    02:00 +13°C° 0.4 mm 3 mps 765 mmHg 92%
    03:00 +13°C° 0.4 mm 3 mps 765 mmHg 92%
    04:00 +13°C° 1.2 mm 3 mps 765 mmHg 91%
    05:00 +13°C° 1.2 mm 3 mps 765 mmHg 90%
    06:00 +13°C° 1.2 mm 4 mps 765 mmHg 89%
    07:00 +13°C° 0.2 mm 4 mps 765 mmHg 85%
    08:00 +13°C° 0.2 mm 4 mps 766 mmHg 81%
    09:00 +13°C° 0.2 mm 5 mps 766 mmHg 76%
    10:00 +13°C° 0 mm 5 mps 767 mmHg 73%
    11:00 +14°C° 0 mm 5 mps 767 mmHg 70%
    12:00 +14°C° 0 mm 5 mps 767 mmHg 67%
    13:00 +14°C° 0 mm 5 mps 768 mmHg 67%
    14:00 +14°C° 0 mm 5 mps 768 mmHg 67%
    15:00 +14°C° 0 mm 4 mps 768 mmHg 67%
    16:00 +13°C° 0 mm 4 mps 768 mmHg 71%
    17:00 +12°C° 0 mm 3 mps 769 mmHg 75%
    18:00 +11°C° 0 mm 3 mps 769 mmHg 80%
    19:00 +10°C° 0 mm 3 mps 769 mmHg 81%
    20:00 +10°C° 0 mm 3 mps 769 mmHg 82%
    21:00 +10°C° 0 mm 3 mps 769 mmHg 83%
    22:00 +10°C° 0 mm 3 mps 769 mmHg 82%
    23:00 +10°C° 0 mm 3 mps 769 mmHg 81%

    28 October, Saturday

    Time Temperature Precipitation Wind Pressure Humidity
    00:00 +10°C° 0 mm 3 mps 769 mmHg 79%
    01:00 +10°C° 0 mm 3 mps 769 mmHg 79%
    02:00 +10°C° 0 mm 4 mps 768 mmHg 79%
    03:00 +10°C° 0 mm 4 mps 768 mmHg 79%
    04:00 +10°C° 0 mm 4 mps 767 mmHg 79%
    05:00 +10°C° 0 mm 4 mps 767 mmHg 79%
    06:00 +9°C° 0 mm 5 mps 767 mmHg 80%
    07:00 +9°C° 0 mm 5 mps 767 mmHg 77%
    08:00 +10°C° 0 mm 6 mps 766 mmHg 75%
    09:00 +11°C° 0 mm 6 mps 766 mmHg 73%
    10:00 +11°C° 0 mm 7 mps 766 mmHg 70%
    11:00 +12°C° 0 mm 7 mps 766 mmHg 68%
    12:00 +12°C° 0 mm 7 mps 766 mmHg 65%
    13:00 +12°C° 0 mm 7 mps 765 mmHg 66%
    14:00 +12°C° 0 mm 7 mps 765 mmHg 66%
    15:00 +12°C° 0 mm 7 mps 765 mmHg 67%
    16:00 +11°C° 0 mm 6 mps 765 mmHg 69%
    17:00 +11°C° 0 mm 6 mps 765 mmHg 71%
    18:00 +12°C° 0 mm 5 mps 765 mmHg 72%
    19:00 +12°C° 0 mm 5 mps 766 mmHg 74%
    20:00 +12°C° 0 mm 4 mps 766 mmHg 76%
    21:00 +12°C° 0 mm 4 mps 766 mmHg 77%
    22:00 +12°C° 0 mm 4 mps 766 mmHg 79%
    23:00 +12°C° 0 mm 4 mps 766 mmHg 80%

    29 October, Sunday

    Time Temperature Precipitation Wind Pressure Humidity
    00:00 +12°C° 0 mm 3 mps 766 mmHg 81%
    01:00 +12°C° 0.1 mm 3 mps 766 mmHg 82%
    02:00 +12°C° 0.1 mm 3 mps 766 mmHg 83%
    03:00 +12°C° 0.1 mm 3 mps 766 mmHg 84%
    04:00 +12°C° 0.1 mm 3 mps 766 mmHg 85%
    05:00 +12°C° 0.1 mm 3 mps 766 mmHg 86%
    06:00 +12°C° 0.1 mm 3 mps 766 mmHg 86%
    07:00 +12°C° 0.1 mm 3 mps 766 mmHg 86%
    08:00 +12°C° 0.1 mm 3 mps 766 mmHg 86%
    09:00 +12°C° 0.1 mm 3 mps 766 mmHg 86%
    10:00 +13°C° 0.1 mm 4 mps 766 mmHg 83%
    11:00 +13°C° 0.1 mm 4 mps 766 mmHg 80%
    12:00 +13°C° 0.1 mm 4 mps 766 mmHg 77%
    13:00 +13°C° 0.1 mm 4 mps 766 mmHg 76%
    14:00 +13°C° 0.1 mm 4 mps 765 mmHg 76%
    15:00 +13°C° 0.1 mm 4 mps 765 mmHg 75%
    16:00 +12°C° 0 mm 3 mps 765 mmHg 78%
    17:00 +11°C° 0 mm 3 mps 765 mmHg 81%
    18:00 +12°C° 0 mm 2 mps 765 mmHg 84%
    19:00 +11°C° 0 mm 3 mps 765 mmHg 84%
    20:00 +11°C° 0 mm 3 mps 765 mmHg 85%
    21:00 +11°C° 0 mm 3 mps 765 mmHg 86%
    22:00 +11°C° 0.1 mm 3 mps 765 mmHg 87%
    23:00 +11°C° 0.1 mm 4 mps 765 mmHg 88%
    Show more